Regional Weather Roundup
Issued by NWS

Home | Current Version | Previous Version | Graphics & Text | Print | Product List | Glossary On
Versions: 1 2 3 4 5 6 7 8 9 10 11 12 13 14 15 16 17 18 19 20 21 22 23 24 25 26 27 28 29 30 31 32 33 34 35 36 37 38 39 40 41 42 43 44 45 46 47 48 49 50
000
ASUS43 KOAX 141110
RWRNE

WEATHER ROUNDUP FOR NEBRASKA
NATIONAL WEATHER SERVICE OMAHA NE
600 AM CDT MON JUL 14 2014

NOTES: SATELLITE DATA IS BEING USED TO AUGMENT CLOUD COVER ABOVE
       12000 FEET.
       "FAIR" INDICATES FEW OR NO CLOUDS BELOW 12,000 FEET WITH NO
       SIGNIFICANT WEATHER AND/OR OBSTRUCTIONS TO VISIBILITY.

  * THESE STATIONS DO NOT REPORT WEATHER SUCH AS RAIN...SNOW OR FOG.

NEZ001>004-019>022-054>056-141200-
NEBRASKA PANHANDLE

CITY           SKY/WX    TMP DP  RH WIND       PRES   REMARKS
SCOTTSBLUFF    CLEAR     59  56  89 NW3       30.23R
ALLIANCE       CLEAR     56  54  93 N8        30.21R
CHADRON        CLEAR     55  53  93 NW3       30.21R
KIMBALL        CLEAR     60  58  93 NW12      30.25R
SIDNEY         PTCLDY    63  57  81 N16       30.23R
$$

NEZ057>060-069>072-079>082-141200-
SOUTHWEST NEBRASKA

CITY           SKY/WX    TMP DP  RH WIND       PRES   REMARKS
NORTH PLATTE   CLEAR     60  57  89 NW6       30.14R
IMPERIAL       CLEAR     60  57  89 NE3       30.13S
LEXINGTON      CLEAR     62  60  94 CALM      30.11R
MCCOOK         CLEAR     60  59  96 SW5       30.10R
OGALLALA       CLEAR     60  57  91 NE5       30.15R
$$

NEZ005>010-023>029-035>040-094-141200-
NORTH CENTRAL NEBRASKA

CITY           SKY/WX    TMP DP  RH WIND       PRES   REMARKS
VALENTINE      PTCLDY    59  50  72 N9        30.15R
AINSWORTH      CLOUDY    61  54  77 NW6       30.13R
BROKEN BOW     MOCLDY    63  61  93 NE6       30.11R
O`NEILL        PTCLDY    59  55  86 NW5       30.10R
ORD            CLOUDY    62  58  86 CALM      30.08S
THEDFORD       MOCLDY    61  60  95 CALM      30.15R
$$

NEZ041-046>049-061>064-073>077-083>087-141200-
SOUTH CENTRAL NEBRASKA

CITY           SKY/WX    TMP DP  RH WIND       PRES   REMARKS
GRAND ISLAND   LGT RAIN  65  63  93 E12       30.06F
AURORA         RAIN      66  66 100 NE7       30.08S
HASTINGS       CLOUDY    66  60  81 E8        30.06S
HEBRON         CLOUDY    71  65  82 NE12      30.04S
HOLDREGE       CLEAR     62  59  87 N3        30.09R
KEARNEY *      PTCLDY    64  59  82 NW6       30.09R
YORK           LGT RAIN  64  64 100 N5        30.08S
$$

NEZ011>018-030>034-042>045-141200-
NORTHEAST NEBRASKA

CITY           SKY/WX    TMP DP  RH WIND       PRES   REMARKS
NORFOLK        CLOUDY    59  56  89 NW3       30.05F
ALBION         CLOUDY    62  58  86 CALM      30.08R
BLAIR          CLOUDY    62  54  74 W3        30.01F
FREMONT        LGT RAIN  65  60  84 W6        30.04F
TEKAMAH        MOCLDY    64  60  87 W6        30.01S
WAYNE          MOCLDY    59  56  91 CALM      30.05R
$$

NEZ050>053-065>068-078-088>093-141200-
SOUTHEAST NEBRASKA

CITY           SKY/WX    TMP DP  RH WIND       PRES   REMARKS
LINCOLN        LGT RAIN  68  61  78 NW5       30.06S
OMAHA EPPLEY   LGT RAIN  65  56  72 CALM      30.02F
BEATRICE       CLOUDY    64  62  93 N16G28    30.06R
FALLS CITY     PTCLDY    69  67  93 NW8       29.98R
NEBRASKA CITY  LGT RAIN  66  64  91 N7        30.02S
PLATTSMOUTH    CLOUDY    66  59  78 CALM      30.02F
$$

NEZ044-045-051>053-067-141200-
OMAHA AREA

CITY           SKY/WX    TMP DP  RH WIND       PRES   REMARKS
OMAHA EPPLEY   LGT RAIN  65  56  72 CALM      30.02F
BLAIR          CLOUDY    62  54  74 W3        30.01F
FREMONT        LGT RAIN  65  60  84 W6        30.04F
MILLARD        LGT RAIN  67  56  68 N3        30.03R
OFFUTT AFB     LGT RAIN  64  63  94 N6        30.02F
PLATTSMOUTH    CLOUDY    66  59  78 CALM      30.02F
WAHOO          PTSUNNY   66  61  85 NW6       30.05R
$$


USA.gov is the U.S. government's official web portal to all federal, state and local government web resources and services.